Location: ??? ?????
(30.6482°N, 60.5850°E)
Time: 18:42:23
(UTC+00:00)

ATLAS 5 CENTAUR R/B - Pass Details

Date: 09 April 2020
Orbit: 543 x 1116 km, 63.4° (Epoch: 01 May)

Event Time Altitude Azimuth Distance (km) Brightness Sun altitude
Rises 23:42:33 0° 339° (NNW) 3,430 5.4 -24.0°
Reaches altitude 10° 23:45:02 10° 346° (NNW) 2,577 4.8 -23.5°
Maximum altitude 23:50:51 44° 58° (ENE) 1,334 3.6 -22.4°
Drops below altitude 10° 23:57:23 10° 129° (SE) 2,891 5.3 -21.1°
Sets 00:00:18 0° 135° (SE) 3,889 5.9 -20.5°
